Météo par heure à Allanche

Ce jour, 15 Mai, Samedi

Heure Température Précipitation Vent Pression Humidité
00:00 +3°C° 0 mm 2 m/s 665 mmHg 85%
01:00 +3°C° 0.3 mm 2 m/s 664 mmHg 88%
02:00 +2°C° 0.3 mm 2 m/s 664 mmHg 92%
03:00 +2°C° 0.3 mm 2 m/s 663 mmHg 96%
04:00 +3°C° 1.2 mm 2 m/s 663 mmHg 97%
05:00 +3°C° 1.2 mm 2 m/s 663 mmHg 97%
06:00 +3°C° 0 mm 2 m/s 663 mmHg 98%
07:00 +4°C° 1.5 mm 2 m/s 663 mmHg 98%
08:00 +4°C° 1.5 mm 2 m/s 663 mmHg 98%
09:00 +4°C° 1.5 mm 2 m/s 663 mmHg 98%
10:00 +5°C° 0.8 mm 2 m/s 663 mmHg 98%
11:00 +5°C° 0.8 mm 2 m/s 663 mmHg 98%
12:00 +6°C° 0.8 mm 2 m/s 663 mmHg 97%
13:00 +6°C° 0.7 mm 2 m/s 663 mmHg 97%
14:00 +5°C° 0.7 mm 3 m/s 663 mmHg 97%
15:00 +5°C° 0.7 mm 3 m/s 663 mmHg 97%
16:00 +5°C° 0.3 mm 3 m/s 663 mmHg 97%
17:00 +5°C° 0.3 mm 4 m/s 664 mmHg 96%
18:00 +5°C° 0.3 mm 4 m/s 664 mmHg 96%
19:00 +5°C° 0.1 mm 3 m/s 664 mmHg 96%
20:00 +5°C° 0.1 mm 3 m/s 664 mmHg 97%
21:00 +6°C° 0.1 mm 2 m/s 664 mmHg 98%
22:00 +6°C° 0.1 mm 2 m/s 664 mmHg 98%
23:00 +6°C° 0.1 mm 2 m/s 664 mmHg 98%

Demain, 16 Mai, Dimanche

Heure Température Précipitation Vent Pression Humidité
00:00 +6°C° 0.1 mm 1 m/s 663 mmHg 98%
01:00 +6°C° 0.5 mm 1 m/s 663 mmHg 98%
02:00 +7°C° 0.5 mm 1 m/s 662 mmHg 98%
03:00 +7°C° 0.5 mm 1 m/s 662 mmHg 98%
04:00 +6°C° 0.6 mm 2 m/s 662 mmHg 98%
05:00 +6°C° 0.6 mm 2 m/s 662 mmHg 98%
06:00 +7°C° 0.6 mm 3 m/s 662 mmHg 98%
07:00 +7°C° 0.4 mm 3 m/s 662 mmHg 97%
08:00 +8°C° 0.4 mm 3 m/s 662 mmHg 96%
09:00 +8°C° 0.4 mm 3 m/s 662 mmHg 96%
10:00 +7°C° 0.2 mm 4 m/s 663 mmHg 94%
11:00 +8°C° 0.2 mm 5 m/s 663 mmHg 92%
12:00 +8°C° 0.2 mm 6 m/s 664 mmHg 90%
13:00 +8°C° 0.3 mm 6 m/s 663 mmHg 86%
14:00 +8°C° 0.3 mm 5 m/s 663 mmHg 83%
15:00 +8°C° 0.3 mm 5 m/s 663 mmHg 80%
16:00 +7°C° 0.2 mm 5 m/s 663 mmHg 81%
17:00 +6°C° 0.2 mm 5 m/s 664 mmHg 82%
18:00 +6°C° 0.2 mm 5 m/s 664 mmHg 83%
19:00 +5°C° 0.1 mm 5 m/s 664 mmHg 85%
20:00 +3°C° 0.1 mm 5 m/s 664 mmHg 87%
21:00 +3°C° 0.1 mm 5 m/s 664 mmHg 89%
22:00 +2°C° 0.1 mm 5 m/s 664 mmHg 89%
23:00 +2°C° 0.1 mm 5 m/s 664 mmHg 88%

Après-demain, 17 Mai, Lundi

Heure Température Précipitation Vent Pression Humidité
00:00 +2°C° 0.1 mm 5 m/s 664 mmHg 88%
01:00 +2°C° 0 mm 5 m/s 664 mmHg 88%
02:00 +1°C° 0 mm 5 m/s 664 mmHg 87%
03:00 +1°C° 0 mm 4 m/s 664 mmHg 87%
04:00 +1°C° 0 mm 4 m/s 665 mmHg 86%
05:00 +2°C° 0 mm 5 m/s 665 mmHg 86%
06:00 +2°C° 0 mm 5 m/s 666 mmHg 85%
07:00 +3°C° 0 mm 5 m/s 666 mmHg 81%
08:00 +5°C° 0 mm 5 m/s 666 mmHg 77%
09:00 +5°C° 0 mm 5 m/s 666 mmHg 73%
10:00 +5°C° 0.1 mm 6 m/s 667 mmHg 71%
11:00 +7°C° 0.1 mm 6 m/s 667 mmHg 69%
12:00 +8°C° 0.1 mm 6 m/s 667 mmHg 68%
13:00 +8°C° 0.2 mm 6 m/s 667 mmHg 71%
14:00 +7°C° 0.2 mm 6 m/s 667 mmHg 73%
15:00 +7°C° 0.2 mm 6 m/s 667 mmHg 76%
16:00 +7°C° 0.2 mm 6 m/s 667 mmHg 79%
17:00 +6°C° 0.2 mm 5 m/s 667 mmHg 83%
18:00 +5°C° 0.2 mm 5 m/s 667 mmHg 86%
19:00 +3°C° 0.1 mm 5 m/s 668 mmHg 88%
20:00 +2°C° 0.1 mm 5 m/s 668 mmHg 89%
21:00 +1°C° 0.1 mm 4 m/s 669 mmHg 91%
22:00 +1°C° 0 mm 4 m/s 669 mmHg 91%
23:00 +1°C° 0 mm 4 m/s 669 mmHg 90%

18 Mai, Mardi

Heure Température Précipitation Vent Pression Humidité
00:00 +1°C° 0 mm 4 m/s 669 mmHg 90%
01:00 +1°C° 0 mm 4 m/s 669 mmHg 89%
02:00 +1°C° 0 mm 4 m/s 669 mmHg 88%
03:00 0°C° 0 mm 4 m/s 669 mmHg 88%
04:00 +2°C° 0 mm 3 m/s 670 mmHg 87%
05:00 +2°C° 0 mm 3 m/s 670 mmHg 87%
06:00 +2°C° 0 mm 3 m/s 670 mmHg 86%
07:00 +3°C° 0 mm 3 m/s 671 mmHg 82%
08:00 +4°C° 0 mm 4 m/s 671 mmHg 79%
09:00 +5°C° 0 mm 4 m/s 671 mmHg 75%
10:00 +6°C° 0 mm 4 m/s 672 mmHg 68%
11:00 +7°C° 0 mm 5 m/s 672 mmHg 61%
12:00 +9°C° 0 mm 5 m/s 672 mmHg 55%
13:00 +9°C° 0.1 mm 5 m/s 672 mmHg 57%
14:00 +9°C° 0.1 mm 5 m/s 672 mmHg 59%
15:00 +9°C° 0.1 mm 5 m/s 672 mmHg 61%
16:00 +8°C° 0.1 mm 4 m/s 672 mmHg 67%
17:00 +7°C° 0.1 mm 4 m/s 672 mmHg 73%
18:00 +7°C° 0.1 mm 3 m/s 672 mmHg 79%
19:00 +6°C° 0 mm 2 m/s 672 mmHg 84%
20:00 +4°C° 0 mm 2 m/s 672 mmHg 90%
21:00 +3°C° 0 mm 1 m/s 672 mmHg 95%
22:00 +3°C° 0 mm 1 m/s 672 mmHg 95%
23:00 +3°C° 0 mm 1 m/s 672 mmHg 95%

19 Mai, Mercredi

Heure Température Précipitation Vent Pression Humidité
00:00 +3°C° 0 mm 1 m/s 672 mmHg 95%
01:00 +3°C° 0 mm 1 m/s 672 mmHg 95%
02:00 +2°C° 0 mm 1 m/s 672 mmHg 95%
03:00 +2°C° 0 mm 1 m/s 672 mmHg 96%
04:00 +3°C° 0 mm 1 m/s 672 mmHg 93%
05:00 +3°C° 0 mm 1 m/s 672 mmHg 91%
06:00 +4°C° 0 mm 1 m/s 672 mmHg 89%
07:00 +5°C° 0 mm 1 m/s 673 mmHg 84%
08:00 +5°C° 0 mm 2 m/s 673 mmHg 79%
09:00 +6°C° 0 mm 2 m/s 673 mmHg 74%
10:00 +8°C° 0 mm 3 m/s 673 mmHg 68%
11:00 +9°C° 0 mm 3 m/s 673 mmHg 62%
12:00 +10°C° 0 mm 3 m/s 673 mmHg 56%
13:00 +10°C° 0 mm 3 m/s 673 mmHg 54%
14:00 +11°C° 0 mm 3 m/s 673 mmHg 52%
15:00 +11°C° 0 mm 3 m/s 673 mmHg 50%
16:00 +11°C° 0 mm 3 m/s 673 mmHg 56%
17:00 +10°C° 0 mm 2 m/s 672 mmHg 62%
18:00 +9°C° 0 mm 2 m/s 672 mmHg 68%
19:00 +8°C° 0 mm 1 m/s 672 mmHg 75%
20:00 +6°C° 0 mm 1 m/s 672 mmHg 82%
21:00 +4°C° 0 mm 1 m/s 672 mmHg 88%
22:00 +4°C° 0 mm 1 m/s 671 mmHg 89%
23:00 +4°C° 0 mm 1 m/s 671 mmHg 89%

20 Mai, Jeudi

Heure Température Précipitation Vent Pression Humidité
00:00 +4°C° 0 mm 1 m/s 671 mmHg 89%
01:00 +4°C° 0 mm 1 m/s 671 mmHg 88%
02:00 +3°C° 0 mm 1 m/s 670 mmHg 88%
03:00 +3°C° 0 mm 1 m/s 670 mmHg 87%
04:00 +5°C° 0 mm 1 m/s 670 mmHg 81%
05:00 +6°C° 0 mm 1 m/s 670 mmHg 76%
06:00 +8°C° 0 mm 1 m/s 670 mmHg 70%
07:00 +9°C° 0 mm 2 m/s 670 mmHg 62%
08:00 +13°C° 0 mm 2 m/s 671 mmHg 54%
09:00 +14°C° 0 mm 3 m/s 671 mmHg 46%
10:00 +15°C° 0 mm 4 m/s 671 mmHg 46%
11:00 +16°C° 0 mm 5 m/s 671 mmHg 46%
12:00 +17°C° 0 mm 6 m/s 671 mmHg 46%
13:00 +16°C° 0 mm 6 m/s 671 mmHg 52%
14:00 +14°C° 0 mm 5 m/s 671 mmHg 59%
15:00 +13°C° 0 mm 5 m/s 671 mmHg 65%
16:00 +12°C° 0 mm 5 m/s 670 mmHg 71%
17:00 +10°C° 0 mm 5 m/s 670 mmHg 76%
18:00 +9°C° 0 mm 5 m/s 670 mmHg 82%
19:00 +7°C° 0 mm 4 m/s 670 mmHg 84%
20:00 +6°C° 0 mm 4 m/s 670 mmHg 87%
21:00 +4°C° 0 mm 3 m/s 671 mmHg 89%
22:00 +3°C° 0 mm 3 m/s 671 mmHg 90%
23:00 +2°C° 0 mm 3 m/s 671 mmHg 91%
Voir plus

Nous avons besoin de votre consentement

Meteoprog et ses fournisseurs de services peuvent stocker et accéder à des données personnelles telles que des cookies, des identifiants d'appareils ou d'autres technologies similaires sur votre appareil et traiter ces données pour personnaliser le contenu et les publicités, ainsi que pour fournir des fonctionnalités de médias sociaux et analyser le trafic.

  • Stocker et/ou accéder à des informations sur votre appareil

    Des cookies, des identifiants d'appareils ou d'autres informations peuvent être stockés ou accessibles sur votre appareil aux fins indiquées ci-dessus.

  • Annonces et contenus personnalisés, mesure des annonces et des contenus, connaissance de l'audience et développement de produits

    Les annonces et le contenu peuvent être personnalisés en fonction d'un profil. D'autres données peuvent être ajoutées pour mieux personnaliser les annonces et le contenu. Les performances des publicités et du contenu peuvent être mesurées. Il est possible d'obtenir des informations sur le public qui a vu les publicités et le contenu. Ces données peuvent être utilisées pour développer ou améliorer l'expérience de l'utilisateur, les systèmes et les logiciels.

En cliquant sur "J'accepte", vous autorisez l'utilisation de cookies, des identifiants d'appareils, des balises web ou d'autres technologies similaires. Vos paramètres peuvent être modifiés dans le navigateur de votre appareil.

Dans certains cas, des intérêts légitimes peuvent être invoqués plutôt qu'un consentement. Vous pouvez en savoir plus à ce sujet dans notre Politique de confidentialité et de cookies.